UITMSAT-1 (43589 NORAD) Tracking and Keplerian Element Data

This shows tracking and keplerian element data for the satellite.

Feedback or suggestion? Click here.




ElementValue
Catalog43589
NameUITMSAT-1
Epoch Orbit5247
Epoch Day193.53561382
Epoch Year2019
RAAN222.5205
Inclination51.6348
Eccentricity0.0004573
Argument of Perigee248.3086
Mean Anonmoly111.7422
Mean Motion15.62225883
Decay Rate0.00010076
L11 43589U 98067PD 19193.53561382 .00010076 00000-0 11794-3 0 9994
L22 43589 51.6348 222.5205 0004573 248.3086 111.7422 15.62225883 52474

Live tracking and technical data element details for UITMSAT-1 (NORAD 43589). UITMSAT-1 can be tracked NOW for your location showing map with azimuth and elevation plus other details from your city location.

Track the satellite on the map from your city or location and see movement details for azimuth, elevation, latitude, longitude, range, height, and movement on the map or in text.







IsCatalogInMostPopularTable: catalog: 43589, numindb: 186
Update: records affected: 1



GetName: 43589 UITMSAT-1

Hit Count: updated at: Mon, 15 Jul 2019 23:03:03 GMT